Time,TemperatureF,DewpointF,PressureIn,WindDirection,WindDirectionDegrees,WindSpeedMPH,WindSpeedGustMPH,Humidity,HourlyPrecipIn,Conditions,Clouds,dailyrainin,SoftwareType,DateUTC
2013-06-06 00:03:00,70.0,59.0,29.96,West,267,4.0,0.0,68,0.00,,,0.00,,2013-06-06 04:03:00,
2013-06-06 00:13:00,70.0,59.0,29.96,West,267,4.0,0.0,68,0.00,,,0.00,,2013-06-06 04:13:00,
2013-06-06 00:23:00,70.0,59.0,29.97,SSW,211,0.0,0.0,67,0.00,,,0.00,,2013-06-06 04:23:00,
2013-06-06 00:33:00,70.0,59.0,29.97,SE,128,1.0,0.0,68,0.00,,,0.01,,2013-06-06 04:33:00,
2013-06-06 00:42:00,70.0,59.0,29.97,SSW,204,0.0,0.0,69,0.00,,,0.01,,2013-06-06 04:42:00,
2013-06-06 00:53:00,70.0,59.0,29.97,SSW,204,0.0,0.0,69,0.00,,,0.01,,2013-06-06 04:53:00,
2013-06-06 01:02:00,70.0,59.0,29.97,SSW,204,0.0,0.0,69,0.00,,,0.01,,2013-06-06 05:02:00,
2013-06-06 01:12:00,70.0,60.0,29.96,NNE,18,0.0,0.0,71,0.00,,,0.01,,2013-06-06 05:12:00,
2013-06-06 01:22:00,70.0,60.0,29.96,NNE,18,0.0,0.0,71,0.00,,,0.01,,2013-06-06 05:22:00,
2013-06-06 01:32:00,69.0,60.0,29.96,NNE,18,0.0,0.0,72,0.00,,,0.01,,2013-06-06 05:32:00,
2013-06-06 01:42:00,69.0,60.0,29.96,NNE,18,0.0,0.0,72,0.00,,,0.01,,2013-06-06 05:42:00,
2013-06-06 01:52:00,68.0,59.0,29.95,North,6,0.0,0.0,74,0.00,,,0.01,,2013-06-06 05:52:00,
2013-06-06 02:02:00,68.0,59.0,29.95,North,6,0.0,0.0,74,0.00,,,0.01,,2013-06-06 06:02:00,
2013-06-06 02:12:00,69.0,59.0,29.95,SW,218,0.0,0.0,71,0.00,,,0.01,,2013-06-06 06:12:00,
2013-06-06 02:22:00,69.0,59.0,29.95,SW,218,0.0,0.0,71,0.00,,,0.01,,2013-06-06 06:22:00,
2013-06-06 02:33:00,69.0,60.0,29.96,SW,218,0.0,0.0,72,0.00,,,0.01,,2013-06-06 06:33:00,
2013-06-06 02:42:00,69.0,60.0,29.96,SW,218,0.0,0.0,72,0.00,,,0.01,,2013-06-06 06:42:00,
2013-06-06 02:52:00,69.0,60.0,29.95,SW,218,0.0,0.0,72,0.00,,,0.01,,2013-06-06 06:52:00,
2013-06-06 03:02:00,69.0,60.0,29.95,SW,218,0.0,0.0,73,0.00,,,0.01,,2013-06-06 07:02:00,
2013-06-06 03:12:00,69.0,60.0,29.95,SW,218,0.0,0.0,73,0.00,,,0.01,,2013-06-06 07:12:00,
2013-06-06 03:22:00,68.0,59.0,29.94,SW,218,0.0,0.0,74,0.00,,,0.01,,2013-06-06 07:22:00,
2013-06-06 03:32:00,68.0,61.0,29.94,SW,218,0.0,0.0,78,0.00,,,0.01,,2013-06-06 07:32:00,
2013-06-06 03:42:00,68.0,61.0,29.94,SW,218,0.0,0.0,78,0.00,,,0.01,,2013-06-06 07:42:00,
2013-06-06 03:52:00,67.0,61.0,29.93,SW,218,0.0,0.0,80,0.00,,,0.01,,2013-06-06 07:52:00,
2013-06-06 04:02:00,67.0,61.0,29.93,SW,218,0.0,0.0,81,0.00,,,0.01,,2013-06-06 08:02:00,
2013-06-06 04:12:00,67.0,62.0,29.93,SW,218,0.0,0.0,84,0.02,,,0.01,,2013-06-06 08:12:00,
2013-06-06 04:22:00,67.0,62.0,29.93,SW,218,0.0,0.0,84,0.02,,,0.01,,2013-06-06 08:22:00,
2013-06-06 04:32:00,66.0,63.0,29.92,SW,218,0.0,0.0,89,0.02,,,0.01,,2013-06-06 08:32:00,
2013-06-06 04:42:00,65.0,63.0,29.92,SW,218,0.0,0.0,93,0.02,,,0.01,,2013-06-06 08:42:00,
2013-06-06 04:52:00,65.0,63.0,29.92,SW,218,0.0,0.0,93,0.02,,,0.01,,2013-06-06 08:52:00,
2013-06-06 05:02:00,65.0,64.0,29.91,SW,218,0.0,0.0,95,0.02,,,0.01,,2013-06-06 09:02:00,
2013-06-06 05:12:00,65.0,64.0,29.92,SW,218,0.0,0.0,98,0.02,,,0.01,,2013-06-06 09:12:00,
2013-06-06 05:22:00,65.0,64.0,29.92,SW,218,0.0,0.0,98,0.02,,,0.01,,2013-06-06 09:22:00,
2013-06-06 05:33:00,64.0,63.0,29.92,SW,218,0.0,0.0,98,0.02,,,0.01,,2013-06-06 09:33:00,
2013-06-06 05:43:00,64.0,63.0,29.92,SW,218,0.0,0.0,98,0.02,,,0.01,,2013-06-06 09:43:00,
2013-06-06 05:53:00,64.0,64.0,29.92,SW,218,0.0,0.0,100,0.02,,,0.01,,2013-06-06 09:53:00,
2013-06-06 06:03:00,64.0,64.0,29.92,SW,218,0.0,0.0,100,0.02,,,0.01,,2013-06-06 10:03:00,
2013-06-06 06:12:00,64.0,64.0,29.92,SW,218,0.0,0.0,100,0.05,,,0.01,,2013-06-06 10:12:00,
2013-06-06 06:23:00,64.0,64.0,29.92,SW,218,0.0,0.0,100,0.05,,,0.01,,2013-06-06 10:23:00,
2013-06-06 06:33:00,64.0,64.0,29.92,SW,218,0.0,0.0,100,0.05,,,0.01,,2013-06-06 10:33:00,
2013-06-06 06:42:00,63.0,63.0,29.92,SW,218,0.0,0.0,100,0.05,,,0.01,,2013-06-06 10:42:00,
2013-06-06 06:53:00,63.0,63.0,29.92,SW,218,0.0,0.0,100,0.05,,,0.01,,2013-06-06 10:53:00,
2013-06-06 07:02:00,63.0,63.0,29.92,SW,218,0.0,0.0,100,0.05,,,0.01,,2013-06-06 11:02:00,
2013-06-06 07:12:00,63.0,63.0,29.92,SW,218,0.0,0.0,100,0.05,,,0.01,,2013-06-06 11:12:00,
2013-06-06 07:22:00,63.0,63.0,29.92,West,280,0.0,0.0,100,0.05,,,0.01,,2013-06-06 11:22:00,
2013-06-06 07:32:00,63.0,63.0,29.92,ESE,113,0.0,0.0,100,0.01,,,0.01,,2013-06-06 11:32:00,
2013-06-06 07:42:00,63.0,63.0,29.92,ESE,113,0.0,0.0,100,0.01,,,0.01,,2013-06-06 11:42:00,
2013-06-06 07:52:00,63.0,63.0,29.92,ESE,113,0.0,0.0,100,0.01,,,0.01,,2013-06-06 11:52:00,
2013-06-06 08:03:00,63.0,63.0,29.91,ESE,113,0.0,0.0,100,0.01,,,0.01,,2013-06-06 12:03:00,
2013-06-06 08:12:00,63.0,63.0,29.91,ESE,113,0.0,0.0,100,0.09,,,0.01,,2013-06-06 12:12:00,
2013-06-06 08:23:00,63.0,63.0,29.91,ESE,113,0.0,0.0,100,0.09,,,0.01,,2013-06-06 12:23:00,
2013-06-06 08:33:00,63.0,63.0,29.90,ESE,113,0.0,0.0,100,0.09,,,0.01,,2013-06-06 12:33:00,
2013-06-06 08:43:00,63.0,63.0,29.90,ESE,113,0.0,0.0,100,0.09,,,0.01,,2013-06-06 12:43:00,
2013-06-06 08:53:00,63.0,63.0,29.90,ESE,113,0.0,0.0,100,0.09,,,0.01,,2013-06-06 12:53:00,
2013-06-06 09:03:00,63.0,63.0,29.89,ESE,113,0.0,0.0,100,0.09,,,0.01,,2013-06-06 13:03:00,
2013-06-06 09:13:00,64.0,64.0,29.90,ESE,113,0.0,0.0,100,0.02,,,0.01,,2013-06-06 13:13:00,
2013-06-06 09:23:00,64.0,64.0,29.90,ESE,113,0.0,0.0,100,0.02,,,0.01,,2013-06-06 13:23:00,
2013-06-06 09:33:00,64.0,64.0,29.88,ESE,113,0.0,0.0,100,0.02,,,0.01,,2013-06-06 13:33:00,
2013-06-06 09:43:00,64.0,64.0,29.89,ESE,113,0.0,0.0,100,0.02,,,0.01,,2013-06-06 13:43:00,
2013-06-06 09:53:00,64.0,64.0,29.89,ESE,113,0.0,0.0,100,0.02,,,0.01,,2013-06-06 13:53:00,
2013-06-06 10:03:00,64.0,64.0,29.89,ESE,113,0.0,0.0,100,0.02,,,0.01,,2013-06-06 14:03:00,
2013-06-06 10:13:00,64.0,64.0,29.89,ESE,113,0.0,0.0,100,0.02,,,0.01,,2013-06-06 14:13:00,
2013-06-06 10:23:00,64.0,64.0,29.89,ESE,113,0.0,0.0,100,0.02,,,0.01,,2013-06-06 14:23:00,
2013-06-06 10:33:00,64.0,64.0,29.88,WSW,253,0.0,0.0,100,0.05,,,0.01,,2013-06-06 14:33:00,
2013-06-06 10:43:00,64.0,64.0,29.88,WSW,253,0.0,0.0,100,0.05,,,0.01,,2013-06-06 14:43:00,
2013-06-06 10:53:00,64.0,64.0,29.88,WSW,253,0.0,0.0,100,0.05,,,0.01,,2013-06-06 14:53:00,
2013-06-06 11:03:00,64.0,64.0,29.88,ENE,73,0.0,0.0,100,0.05,,,0.01,,2013-06-06 15:03:00,
2013-06-06 11:13:00,64.0,64.0,29.88,ENE,73,0.0,0.0,100,0.05,,,0.01,,2013-06-06 15:13:00,
2013-06-06 11:23:00,64.0,64.0,29.88,ENE,73,0.0,0.0,100,0.05,,,0.01,,2013-06-06 15:23:00,
2013-06-06 11:33:00,64.0,64.0,29.88,SW,236,0.0,0.0,100,0.00,,,0.01,,2013-06-06 15:33:00,
2013-06-06 11:43:00,64.0,64.0,29.88,SW,236,0.0,0.0,100,0.00,,,0.01,,2013-06-06 15:43:00,
2013-06-06 11:53:00,64.0,64.0,29.86,NE,48,3.0,0.0,100,0.00,,,0.01,,2013-06-06 15:53:00,
2013-06-06 12:03:00,65.0,65.0,29.87,WSW,246,4.0,0.0,100,0.00,,,0.01,,2013-06-06 16:03:00,
2013-06-06 12:13:00,65.0,65.0,29.87,WSW,246,4.0,0.0,100,0.00,,,0.01,,2013-06-06 16:13:00,
2013-06-06 12:23:00,65.0,65.0,29.86,NNW,329,0.0,0.0,100,0.00,,,0.01,,2013-06-06 16:23:00,
2013-06-06 12:33:00,64.0,64.0,29.86,North,349,0.0,0.0,100,0.06,,,0.01,,2013-06-06 16:33:00,
2013-06-06 12:44:00,64.0,64.0,29.86,North,349,0.0,0.0,100,0.06,,,0.01,,2013-06-06 16:44:00,
2013-06-06 12:52:00,64.0,64.0,29.86,North,349,0.0,0.0,100,0.06,,,0.01,,2013-06-06 16:52:00,
2013-06-06 13:03:00,65.0,65.0,29.85,North,349,0.0,0.0,100,0.06,,,0.01,,2013-06-06 17:03:00,
2013-06-06 13:13:00,65.0,65.0,29.85,SW,228,0.0,0.0,100,0.00,,,0.01,,2013-06-06 17:13:00,
2013-06-06 13:23:00,65.0,65.0,29.85,SW,228,0.0,0.0,100,0.00,,,0.01,,2013-06-06 17:23:00,
2013-06-06 13:33:00,65.0,65.0,29.85,SW,228,0.0,0.0,100,0.00,,,0.01,,2013-06-06 17:33:00,
2013-06-06 13:43:00,65.0,65.0,29.85,SW,228,0.0,0.0,100,0.00,,,0.01,,2013-06-06 17:43:00,
2013-06-06 13:53:00,66.0,66.0,29.85,SW,228,0.0,0.0,100,0.00,,,0.01,,2013-06-06 17:53:00,
2013-06-06 14:03:00,66.0,66.0,29.84,NNW,335,0.0,0.0,100,0.00,,,0.01,,2013-06-06 18:03:00,
2013-06-06 14:13:00,66.0,66.0,29.84,NNW,335,0.0,0.0,100,0.00,,,0.01,,2013-06-06 18:13:00,
2013-06-06 14:23:00,66.0,66.0,29.85,NNW,335,0.0,0.0,100,0.00,,,0.01,,2013-06-06 18:23:00,
2013-06-06 14:33:00,66.0,66.0,29.84,WSW,252,4.0,0.0,100,0.00,,,0.01,,2013-06-06 18:33:00,
2013-06-06 14:43:00,66.0,66.0,29.84,WSW,252,4.0,0.0,100,0.00,,,0.01,,2013-06-06 18:43:00,
2013-06-06 14:53:00,67.0,67.0,29.84,ENE,68,0.0,0.0,100,0.00,,,0.01,,2013-06-06 18:53:00,
2013-06-06 15:03:00,67.0,67.0,29.84,ENE,68,0.0,0.0,100,0.00,,,0.01,,2013-06-06 19:03:00,
2013-06-06 15:13:00,67.0,67.0,29.83,South,183,0.0,0.0,100,0.00,,,0.01,,2013-06-06 19:13:00,
2013-06-06 15:23:00,67.0,67.0,29.83,South,183,0.0,0.0,100,0.00,,,0.01,,2013-06-06 19:23:00,
2013-06-06 15:43:00,67.0,67.0,29.83,South,183,0.0,0.0,100,0.00,,,0.01,,2013-06-06 19:43:00,
2013-06-06 15:53:00,68.0,67.0,29.83,SSE,149,0.0,0.0,95,0.00,,,0.01,,2013-06-06 19:53:00,
2013-06-06 16:03:00,68.0,67.0,29.83,SSE,149,0.0,0.0,95,0.00,,,0.01,,2013-06-06 20:03:00,
2013-06-06 16:13:00,68.0,64.0,29.81,ESE,122,0.0,0.0,88,0.00,,,0.01,,2013-06-06 20:13:00,
2013-06-06 16:23:00,68.0,64.0,29.81,ESE,122,0.0,0.0,88,0.00,,,0.01,,2013-06-06 20:23:00,
2013-06-06 16:33:00,68.0,62.0,29.81,SSE,155,2.0,3.0,82,0.00,,,0.01,,2013-06-06 20:33:00,
2013-06-06 16:43:00,68.0,62.0,29.81,SSE,155,2.0,3.0,82,0.00,,,0.01,,2013-06-06 20:43:00,
2013-06-06 16:53:00,68.0,62.0,29.81,SSE,155,2.0,3.0,82,0.00,,,0.01,,2013-06-06 20:53:00,
2013-06-06 17:03:00,68.0,64.0,29.81,South,170,0.0,0.0,88,0.00,,,0.01,,2013-06-06 21:03:00,
2013-06-06 17:13:00,68.0,63.0,29.80,South,177,0.0,5.0,85,0.00,,,0.01,,2013-06-06 21:13:00,
2013-06-06 17:23:00,68.0,63.0,29.80,South,177,0.0,5.0,85,0.00,,,0.01,,2013-06-06 21:23:00,
2013-06-06 17:33:00,68.0,64.0,29.80,SSE,150,0.0,0.0,87,0.00,,,0.01,,2013-06-06 21:33:00,
2013-06-06 17:43:00,68.0,64.0,29.80,SSE,150,0.0,0.0,87,0.00,,,0.01,,2013-06-06 21:43:00,
2013-06-06 17:53:00,68.0,64.0,29.79,WSW,246,0.0,0.0,86,0.00,,,0.01,,2013-06-06 21:53:00,
2013-06-06 18:03:00,68.0,63.0,29.79,SSW,195,0.0,0.0,85,0.00,,,0.01,,2013-06-06 22:03:00,
2013-06-06 18:13:00,68.0,63.0,29.79,NE,49,1.0,0.0,83,0.00,,,0.01,,2013-06-06 22:13:00,
2013-06-06 18:23:00,68.0,63.0,29.79,NE,49,1.0,0.0,83,0.00,,,0.01,,2013-06-06 22:23:00,
2013-06-06 18:33:00,68.0,62.0,29.78,NE,49,0.0,0.0,81,0.00,,,0.01,,2013-06-06 22:33:00,
2013-06-06 18:43:00,68.0,62.0,29.78,NE,49,0.0,0.0,81,0.00,,,0.01,,2013-06-06 22:43:00,
2013-06-06 18:53:00,68.0,62.0,29.78,North,359,0.0,4.0,80,0.00,,,0.01,,2013-06-06 22:53:00,
2013-06-06 19:02:00,68.0,63.0,29.78,NE,51,0.0,0.0,83,0.00,,,0.01,,2013-06-06 23:02:00,
2013-06-06 19:13:00,66.0,63.0,29.79,South,173,0.0,0.0,91,0.05,,,0.01,,2013-06-06 23:13:00,
2013-06-06 19:22:00,66.0,63.0,29.79,South,173,0.0,0.0,91,0.05,,,0.01,,2013-06-06 23:22:00,
2013-06-06 19:33:00,66.0,64.0,29.80,South,173,0.0,0.0,93,0.05,,,0.01,,2013-06-06 23:33:00,
2013-06-06 19:43:00,66.0,64.0,29.80,South,173,0.0,0.0,93,0.05,,,0.01,,2013-06-06 23:43:00,
2013-06-06 19:52:00,65.0,64.0,29.81,South,173,0.0,0.0,98,0.05,,,0.01,,2013-06-06 23:52:00,
2013-06-06 20:02:00,65.0,65.0,29.81,North,359,2.0,0.0,100,0.05,,,0.01,,2013-06-07 00:02:00,
2013-06-06 20:12:00,65.0,65.0,29.81,North,359,2.0,0.0,100,0.05,,,0.01,,2013-06-07 00:12:00,
2013-06-06 20:22:00,64.0,64.0,29.80,North,359,0.0,0.0,100,0.26,,,0.01,,2013-06-07 00:22:00,
2013-06-06 20:32:00,64.0,64.0,29.81,North,359,0.0,0.0,100,0.26,,,0.01,,2013-06-07 00:32:00,
2013-06-06 20:42:00,64.0,64.0,29.81,North,359,0.0,0.0,100,0.26,,,0.01,,2013-06-07 00:42:00,
2013-06-06 20:52:00,64.0,64.0,29.81,NNW,329,0.0,0.0,100,0.26,,,0.01,,2013-06-07 00:52:00,
2013-06-06 21:03:00,64.0,64.0,29.80,NNW,329,0.0,0.0,100,0.26,,,0.01,,2013-06-07 01:03:00,
2013-06-06 21:12:00,64.0,64.0,29.76,NNW,329,0.0,0.0,100,0.16,,,0.01,,2013-06-07 01:12:00,
2013-06-06 21:22:00,64.0,64.0,29.76,NNW,329,0.0,0.0,100,0.16,,,0.01,,2013-06-07 01:22:00,
2013-06-06 21:32:00,64.0,64.0,29.80,NNW,329,0.0,0.0,100,0.16,,,0.01,,2013-06-07 01:32:00,
2013-06-06 21:42:00,64.0,64.0,29.80,NNW,329,0.0,0.0,100,0.16,,,0.01,,2013-06-07 01:42:00,
2013-06-06 21:52:00,64.0,64.0,29.79,NNW,329,0.0,0.0,100,0.16,,,0.01,,2013-06-07 01:52:00,
2013-06-06 22:02:00,64.0,64.0,29.79,NNW,329,0.0,0.0,100,0.16,,,0.01,,2013-06-07 02:02:00,
2013-06-06 22:12:00,64.0,64.0,29.79,NNW,329,0.0,0.0,100,0.16,,,0.01,,2013-06-07 02:12:00,
2013-06-06 22:22:00,63.0,63.0,29.79,NNW,329,0.0,0.0,100,0.00,,,0.01,,2013-06-07 02:22:00,
2013-06-06 22:32:00,63.0,63.0,29.79,NNW,329,0.0,0.0,100,0.00,,,0.01,,2013-06-07 02:32:00,
2013-06-06 22:42:00,63.0,63.0,29.79,NNW,329,0.0,0.0,100,0.00,,,0.01,,2013-06-07 02:42:00,
2013-06-06 22:52:00,63.0,63.0,29.80,NNW,329,0.0,0.0,100,0.00,,,0.01,,2013-06-07 02:52:00,
2013-06-06 23:02:00,63.0,63.0,29.80,NNW,329,0.0,0.0,100,0.00,,,0.01,,2013-06-07 03:02:00,
2013-06-06 23:12:00,63.0,63.0,29.80,NNW,329,0.0,0.0,100,0.00,,,0.01,,2013-06-07 03:12:00,
2013-06-06 23:22:00,63.0,63.0,29.80,NNW,329,0.0,0.0,100,0.00,,,0.01,,2013-06-07 03:22:00,
2013-06-06 23:33:00,63.0,63.0,29.80,NNW,329,0.0,0.0,100,0.00,,,0.01,,2013-06-07 03:33:00,
2013-06-06 23:43:00,63.0,63.0,29.80,NNW,329,0.0,0.0,100,0.00,,,0.01,,2013-06-07 03:43:00,
2013-06-06 23:53:00,63.0,63.0,29.79,NNW,329,0.0,0.0,100,0.00,,,0.01,,2013-06-07 03:53:00,